QPF
0.00 0.00 0.00 0.00 0.00 0.00 0.00 0.00 0.00 0.00 0.00 0.00 0.00 0.00 0.00 0.00 0.00 0.00 0.01 0.00 0.00 0.01 0.02 0.05 0.06 0.05 0.00 0.01 0.04 0.00 0.00 0.00 0.00 0.00 0.00 0.00 0.00 0.00 0.00 0.00 0.00 0.00 0.00 0.00
0.00 0.00 0.00 0.00 0.00 0.00 0.00 0.00 0.00 0.00 0.00 0.00 0.00 0.00 0.00 0.00 0.00 0.00 0.00 0.00 0.00 0.06 0.01 0.01 0.01 0.02 0.01 0.01 0.02 0.00 0.00 0.00 0.00 0.00 0.00 0.00 0.00 0.00 0.00 0.00 0.00 0.00 0.00 0.00
0.00 0.00 0.00 0.00 0.00 0.00 0.00 0.00 0.00 0.00 0.00 0.00 0.00 0.00 0.00 0.00 0.00 0.00 0.00 0.00 0.02 0.01 0.00 0.00 0.00 0.00 0.00 0.00 0.03 0.03 0.00 0.02 0.00 0.00 0.00 0.00 0.00 0.00 0.00 0.00 0.00 0.00 0.00 0.00
0.00 0.00 0.00 0.00 0.00 0.00 0.00 0.00 0.00 0.00 0.00 0.00 0.00 0.00 0.00 0.00 0.00 0.00 0.00 0.00 0.01 0.02 0.02 0.00 0.01 0.01 0.00 0.02 0.03 0.03 0.02 0.08 0.01 0.00 0.00 0.00 0.00 0.00 0.00 0.00 0.00 0.00 0.00 0.00
0.00 0.00 0.00 0.00 0.00 0.00 0.00 0.00 0.00 0.00 0.00 0.00 0.00 0.00 0.00 0.00 0.01 0.01 0.01 0.03 0.06 0.06 0.05 0.05 0.03 0.01 0.00 0.00 0.00 0.01 0.03 0.01 0.00 0.00 0.00 0.00 0.00 0.00 0.00 0.00 0.00 0.00 0.00 0.00
0.00 0.00 0.00 0.00 0.00 0.00 0.00 0.00 0.00 0.00 0.00 0.00 0.00 0.00 0.00 0.00 0.01 0.04 0.03 0.03 0.05 0.06 0.04 0.02 0.00 0.00 0.00 0.00 0.00 0.00 0.00 0.00 0.00 0.00 0.00 0.01 0.02 0.01 0.00 0.00 0.00 0.00 0.00 0.00
0.00 0.00 0.00 0.00 0.00 0.00 0.00 0.00 0.00 0.01 0.00 0.00 0.00 0.00 0.00 0.00 0.02 0.04 0.03 0.02 0.03 0.02 0.00 0.00 0.00 0.00 0.00 0.00 0.00 0.00 0.00 0.00 0.00 0.00 0.01 0.02 0.02 0.00 0.00 0.00 0.00 0.00 0.00 0.00
0.00 0.00 0.00 0.00 0.00 0.00 0.00 0.02 0.03 0.03 0.00 0.00 0.00 0.00 0.00 0.01 0.02 0.02 0.04 0.04 0.03 0.01 0.00 0.00 0.00 0.00 0.00 0.00 0.00 0.00 0.00 0.00 0.00 0.02 0.03 0.01 0.00 0.00 0.00 0.00 0.00 0.00 0.00 0.00
0.00 0.00 0.01 0.00 0.00 0.00 0.00 0.00 0.03 0.03 0.02 0.01 0.04 0.03 0.09 0.09 0.06 0.03 0.01 0.00 0.00 0.00 0.00 0.00 0.00 0.00 0.00 0.00 0.00 0.00 0.00 0.00 0.00 0.01 0.01 0.01 0.00 0.00 0.00 0.00 0.00 0.00 0.00 0.00
0.00 0.00 0.01 0.02 0.00 0.00 0.00 0.00 0.00 0.01 0.01 0.03 0.02 0.04 0.04 0.03 0.01 0.00 0.00 0.00 0.00 0.00 0.00 0.00 0.00 0.00 0.00 0.00 0.00 0.00 0.00 0.00 0.00 0.00 0.00 0.00 0.00 0.00 0.00 0.00 0.00 0.00 0.00 0.00
0.02 0.01 0.00 0.00 0.00 0.00 0.00 0.00 0.00 0.00 0.00 0.00 0.00 0.00 0.00 0.00 0.00 0.00 0.00 0.00 0.00 0.00 0.00 0.00 0.00 0.00 0.00 0.00 0.00 0.00 0.00 0.00 0.00 0.00 0.00 0.00 0.00 0.00 0.00 0.00 0.00 0.00 0.00 0.00
0.02 0.00 0.00 0.00 0.00 0.00 0.00 0.00 0.00 0.00 0.00 0.00 0.00 0.00 0.00 0.00 0.00 0.00 0.00 0.00 0.00 0.00 0.00 0.00 0.00 0.00 0.00 0.00 0.00 0.00 0.00 0.00 0.00 0.00 0.00 0.00 0.00 0.00 0.00 0.00 0.00 0.00 0.00 0.00
0.00 0.01 0.01 0.00 0.00 0.00 0.00 0.00 0.00 0.00 0.00 0.00 0.00 0.00 0.00 0.00 0.00 0.00 0.00 0.00 0.00 0.00 0.00 0.00 0.00 0.00 0.00 0.00 0.00 0.00 0.00 0.00 0.00 0.00 0.00 0.00 0.00 0.00 0.00 0.00 0.00 0.00 0.00 0.00
0.00 0.00 0.02 0.00 0.00 0.00 0.01 0.00 0.00 0.01 0.00 0.00 0.00 0.00 0.00 0.00 0.00 0.00 0.00 0.00 0.00 0.00 0.00 0.00 0.00 0.00 0.00 0.00 0.00 0.00 0.00 0.00 0.00 0.00 0.00 0.00 0.00 0.00 0.00 0.00 0.00 0.00 0.00 0.00
0.00 0.00 0.00 0.00 0.00 0.01 0.01 0.00 0.00 0.00 0.00 0.00 0.00 0.00 0.00 0.00 0.00 0.00 0.00 0.00 0.00 0.00 0.00 0.00 0.00 0.00 0.00 0.00 0.00 0.00 0.00 0.00 0.00 0.00 0.00 0.00 0.00 0.00 0.00 0.00 0.00 0.00 0.00 0.00
0.00 0.00 0.00 0.00 0.00 0.00 0.00 0.00 0.00 0.00 0.00 0.00 0.00 0.00 0.00 0.00 0.00 0.00 0.00 0.00 0.00 0.00 0.00 0.00 0.00 0.00 0.00 0.00 0.00 0.00 0.00 0.00 0.00 0.00 0.00 0.00 0.00 0.00 0.00 0.00 0.00 0.00 0.00 0.00
0.00 0.00 0.00 0.00 0.00 0.01 0.01 0.00 0.00 0.00 0.00 0.00 0.00 0.00 0.00 0.00 0.00 0.00 0.00 0.00 0.00 0.00 0.00 0.00 0.00 0.00 0.00 0.00 0.00 0.00 0.00 0.00 0.00 0.00 0.00 0.00 0.00 0.00 0.00 0.00 0.00 0.00 0.00 0.00
0.00 0.00 0.00 0.00 0.00 0.00 0.02 0.02 0.01 0.00 0.00 0.00 0.00 0.00 0.00 0.00 0.00 0.00 0.00 0.00 0.00 0.00 0.00 0.00 0.00 0.00 0.00 0.00 0.00 0.00 0.00 0.00 0.00 0.00 0.00 0.00 0.00 0.00 0.00 0.00 0.00 0.00 0.00 0.00
0.00 0.00 0.00 0.00 0.00 0.01 0.07 0.08 0.11 0.07 0.00 0.00 0.00 0.00 0.00 0.00 0.00 0.00 0.00 0.00 0.00 0.00 0.00 0.00 0.00 0.00 0.00 0.00 0.00 0.00 0.00 0.00 0.00 0.00 0.00 0.00 0.00 0.00 0.00 0.00 0.00 0.00 0.00 0.00
0.00 0.00 0.00 0.00 0.00 0.01 0.07 0.08 0.10 0.08 0.01 0.00 0.00 0.00 0.00 0.00 0.00 0.00 0.00 0.00 0.00 0.00 0.00 0.00 0.00 0.00 0.00 0.00 0.00 0.00 0.00 0.00 0.00 0.00 0.00 0.00 0.00 0.00 0.00 0.00 0.00 0.00 0.00 0.00
0.00 0.00 0.00 0.00 0.00 0.00 0.01 0.04 0.06 0.07 0.02 0.00 0.00 0.00 0.00 0.00 0.00 0.00 0.00 0.00 0.00 0.00 0.00 0.00 0.00 0.00 0.00 0.00 0.00 0.00 0.00 0.00 0.00 0.00 0.00 0.00 0.00 0.00 0.00 0.00 0.00 0.00 0.00 0.00
0.00 0.00 0.00 0.01 0.07 0.16 0.15 0.15 0.12 0.08 0.02 0.01 0.00 0.01 0.00 0.00 0.00 0.00 0.00 0.00 0.00 0.00 0.00 0.02 0.01 0.00 0.00 0.00 0.00 0.00 0.00 0.00 0.00 0.00 0.00 0.00 0.00 0.00 0.00 0.00 0.00 0.00 0.00 0.00
0.00 0.00 0.00 0.02 0.03 0.04 0.05 0.09 0.09 0.06 0.02 0.02 0.01 0.01 0.00 0.00 0.00 0.00 0.00 0.00 0.00 0.00 0.00 0.00 0.00 0.00 0.00 0.00 0.00 0.00 0.00 0.00 0.00 0.00 0.00 0.00 0.00 0.00 0.00 0.00 0.00 0.00 0.00 0.00
0.05 0.03 0.05 0.07 0.04 0.03 0.03 0.04 0.03 0.01 0.00 0.00 0.00 0.00 0.00 0.00 0.00 0.00 0.00 0.00 0.00 0.00 0.00 0.00 0.00 0.00 0.00 0.00 0.00 0.00 0.00 0.00 0.00 0.00 0.00 0.00 0.00 0.00 0.00 0.00 0.00 0.00 0.00 0.00
0.05 0.06 0.07 0.06 0.05 0.03 0.02 0.01 0.00 0.00 0.00 0.00 0.00 0.00 0.00 0.00 0.00 0.00 0.00 0.00 0.00 0.00 0.00 0.00 0.00 0.00 0.00 0.00 0.00 0.00 0.00 0.00 0.00 0.00 0.00 0.00 0.00 0.00 0.00 0.00 0.00 0.00 0.00 0.00
0.00 0.01 0.02 0.01 0.01 0.00 0.00 0.00 0.00 0.00 0.00 0.00 0.00 0.00 0.00 0.00 0.00 0.00 0.00 0.00 0.00 0.00 0.00 0.00 0.00 0.00 0.00 0.00 0.00 0.00 0.00 0.00 0.00 0.00 0.00 0.00 0.00 0.00 0.00 0.00 0.00 0.00 0.00 0.00
0.00 0.00 0.00 0.00 0.00 0.00 0.00 0.00 0.00 0.00 0.00 0.00 0.00 0.00 0.00 0.00 0.00 0.00 0.00 0.00 0.00 0.00 0.00 0.00 0.00 0.00 0.00 0.00 0.00 0.00 0.00 0.00 0.00 0.00 0.00 0.00 0.00 0.00 0.00 0.00 0.00 0.00 0.00 0.00
MSLP
1004.65 1003.95 1003.72 1003.49 1003.62 1004.33 1005.18 1005.75 1006.46 1006.56 1007.37 1007.18 1007.59 1008.41 1008.80 1008.74 1009.05 1009.69 1010.23 1010.86 1010.99 1011.20 1011.15 1011.70 1012.26 1012.64 1012.13 1012.42 1012.68 1012.72 1012.83 1012.80 1012.86 1013.17 1013.62 1013.89 1014.17 1014.72 1015.16 1015.34 1015.49 1015.35 1015.25 1015.05
1005.19 1004.63 1003.90 1003.35 1003.07 1003.26 1003.92 1004.42 1005.03 1005.82 1006.61 1006.35 1007.50 1008.52 1008.90 1009.01 1009.31 1010.24 1010.54 1011.01 1010.66 1011.06 1011.62 1012.63 1012.93 1013.11 1012.91 1012.96 1012.86 1012.43 1012.77 1012.94 1012.81 1013.06 1013.31 1013.98 1014.57 1015.10 1015.65 1015.95 1016.17 1016.02 1016.04 1015.87
1006.24 1005.49 1004.56 1004.03 1003.02 1003.07 1003.47 1003.52 1004.37 1005.12 1005.56 1006.74 1007.81 1008.23 1008.83 1009.20 1009.81 1010.19 1010.90 1011.34 1011.29 1011.88 1012.86 1013.37 1013.39 1013.43 1013.45 1013.37 1013.00 1012.85 1012.89 1012.90 1013.25 1013.50 1013.85 1014.33 1014.87 1015.52 1016.09 1016.48 1016.58 1016.82 1016.82 1016.66
1007.19 1006.15 1005.71 1004.40 1003.40 1003.18 1003.48 1004.16 1004.32 1004.86 1005.77 1006.68 1007.75 1008.41 1009.20 1009.81 1010.37 1010.94 1011.09 1011.74 1012.18 1012.92 1013.58 1014.19 1014.36 1014.15 1014.18 1013.98 1013.72 1013.31 1013.28 1012.93 1013.33 1013.73 1014.28 1014.90 1015.57 1016.12 1016.47 1016.89 1017.22 1017.48 1017.54 1017.46
1008.03 1007.52 1006.60 1004.93 1004.28 1004.25 1004.36 1004.74 1004.94 1005.85 1006.59 1007.43 1008.04 1008.84 1010.03 1010.38 1010.85 1011.64 1012.04 1012.40 1012.93 1013.70 1014.44 1014.91 1014.92 1015.00 1014.86 1014.70 1014.47 1013.91 1013.87 1013.49 1013.52 1013.90 1014.59 1015.40 1016.20 1016.84 1017.27 1017.64 1018.06 1018.16 1018.06 1017.91
1008.73 1008.19 1007.38 1006.13 1005.14 1004.83 1004.75 1005.39 1005.46 1006.27 1007.03 1007.68 1008.53 1010.10 1010.56 1011.13 1011.39 1012.08 1012.98 1013.27 1013.74 1014.55 1015.00 1015.40 1015.51 1015.73 1015.30 1015.43 1015.29 1014.76 1014.64 1014.48 1013.96 1014.25 1014.83 1015.57 1016.47 1017.36 1017.95 1018.20 1018.56 1018.65 1018.76 1018.79
1009.20 1008.62 1007.60 1006.74 1006.13 1005.67 1006.33 1007.41 1006.59 1007.04 1007.99 1008.58 1009.14 1009.85 1010.58 1011.50 1012.53 1013.10 1013.95 1014.54 1015.23 1015.69 1015.82 1016.15 1016.33 1016.26 1015.93 1015.95 1015.85 1015.67 1015.47 1015.38 1015.15 1015.22 1015.62 1016.44 1016.85 1017.50 1018.25 1018.67 1018.94 1019.08 1019.19 1019.47
1009.85 1009.36 1008.54 1007.52 1006.63 1006.86 1007.83 1007.35 1007.08 1007.59 1008.49 1009.38 1010.26 1011.01 1011.77 1012.79 1013.49 1013.91 1014.70 1015.38 1016.02 1016.52 1016.45 1016.77 1016.78 1016.25 1016.26 1016.47 1016.37 1016.29 1016.44 1016.42 1016.50 1016.49 1016.82 1017.37 1017.75 1018.07 1018.44 1018.95 1019.24 1019.68 1019.64 1020.19
1010.44 1009.77 1008.94 1008.67 1008.24 1007.83 1007.60 1007.49 1007.84 1008.01 1008.85 1009.81 1011.03 1012.39 1013.30 1014.22 1014.90 1015.17 1015.73 1016.41 1016.80 1016.94 1017.14 1017.08 1016.85 1016.72 1017.00 1017.06 1016.94 1017.01 1016.88 1017.18 1017.43 1017.59 1017.82 1018.39 1018.75 1018.93 1018.74 1019.30 1019.74 1020.14 1020.12 1020.99
1010.59 1010.16 1009.67 1009.31 1008.92 1008.32 1007.78 1007.73 1008.43 1008.47 1009.18 1010.11 1011.17 1012.73 1013.64 1014.45 1014.96 1015.40 1015.89 1016.48 1016.90 1017.12 1017.22 1017.45 1017.45 1017.44 1017.56 1017.55 1017.42 1017.50 1017.83 1018.15 1018.27 1018.34 1018.82 1019.29 1019.50 1019.68 1019.69 1019.80 1020.48 1020.75 1021.09 1021.62
1010.97 1010.64 1010.36 1009.69 1009.31 1009.22 1008.86 1008.57 1008.93 1009.67 1009.99 1010.76 1011.50 1012.51 1013.16 1014.08 1014.86 1015.52 1015.85 1016.54 1016.74 1016.93 1017.52 1017.85 1017.89 1017.89 1017.92 1018.02 1017.99 1018.26 1018.74 1019.08 1019.27 1019.45 1019.80 1020.22 1020.53 1020.97 1020.73 1020.76 1020.90 1021.58 1021.76 1022.07
1010.62 1010.28 1010.30 1009.93 1009.56 1009.29 1009.31 1009.49 1009.73 1010.12 1010.95 1011.69 1012.13 1013.03 1014.00 1014.33 1015.04 1015.54 1016.10 1016.85 1017.25 1017.58 1017.81 1018.06 1018.19 1017.95 1017.96 1018.35 1018.51 1018.80 1019.36 1019.73 1020.03 1020.14 1020.58 1020.76 1021.27 1021.44 1021.65 1021.79 1021.86 1022.16 1022.14 1022.37
1009.86 1009.82 1009.99 1009.85 1009.93 1009.79 1009.68 1009.75 1010.26 1010.66 1011.13 1011.99 1013.11 1013.60 1014.28 1014.86 1015.00 1015.42 1016.18 1016.81 1017.18 1017.42 1017.82 1017.94 1018.28 1018.37 1018.54 1019.04 1019.23 1019.41 1019.67 1020.35 1020.56 1020.86 1021.22 1021.51 1021.82 1022.06 1022.52 1022.86 1022.68 1022.76 1022.75 1022.75
1009.79 1009.83 1010.23 1010.06 1009.82 1009.99 1010.34 1010.61 1010.76 1011.55 1011.94 1012.35 1013.00 1013.84 1014.24 1014.74 1015.41 1015.77 1016.29 1016.75 1017.13 1017.44 1017.80 1018.11 1018.34 1018.54 1018.79 1019.26 1019.83 1019.88 1020.17 1020.77 1021.14 1021.39 1021.57 1021.92 1022.12 1022.52 1022.68 1023.04 1023.20 1023.34 1023.29 1023.21
1010.03 1009.97 1010.01 1010.00 1010.02 1010.04 1010.48 1011.18 1011.64 1012.40 1012.68 1013.08 1013.50 1013.80 1014.37 1014.78 1015.18 1015.68 1016.02 1016.54 1016.93 1017.54 1018.04 1018.29 1018.64 1019.10 1019.25 1019.83 1020.03 1020.39 1020.60 1021.43 1021.64 1022.05 1022.33 1022.54 1022.62 1022.85 1022.77 1022.94 1023.20 1023.37 1023.57 1023.51
1009.84 1010.00 1010.17 1010.23 1010.29 1010.50 1010.93 1011.42 1011.83 1012.68 1013.04 1013.40 1013.50 1014.03 1014.45 1014.55 1014.94 1015.47 1016.00 1016.51 1017.05 1017.73 1018.21 1018.53 1018.85 1019.23 1019.53 1019.73 1020.27 1020.65 1020.98 1021.31 1021.79 1022.17 1022.41 1022.80 1022.89 1023.05 1023.28 1023.23 1023.39 1023.41 1023.51 1023.63
1009.93 1010.16 1010.27 1010.49 1010.63 1010.74 1010.98 1011.26 1011.61 1012.28 1012.99 1013.40 1013.78 1013.93 1014.39 1015.01 1015.43 1015.80 1016.02 1016.50 1016.93 1017.49 1017.90 1018.41 1018.79 1019.27 1019.64 1019.90 1020.16 1020.59 1020.95 1021.36 1021.61 1022.13 1022.37 1022.70 1022.70 1022.87 1022.98 1023.20 1023.40 1023.57 1023.62 1023.46
1009.37 1008.93 1009.20 1009.47 1010.01 1010.54 1011.04 1011.46 1011.89 1012.28 1012.78 1013.18 1013.66 1014.03 1014.30 1014.80 1015.41 1016.09 1016.44 1016.47 1016.93 1017.48 1017.84 1017.97 1018.30 1018.85 1019.21 1019.66 1020.10 1020.21 1020.63 1021.16 1021.27 1021.46 1021.66 1021.96 1022.21 1022.36 1022.86 1023.08 1023.34 1023.54 1023.54 1023.40
1008.92 1008.91 1008.81 1009.10 1009.45 1009.92 1010.43 1011.27 1011.75 1012.21 1012.51 1013.10 1013.68 1014.28 1014.47 1014.67 1015.18 1015.50 1016.34 1017.09 1017.26 1017.31 1017.48 1017.65 1017.92 1018.38 1018.77 1019.14 1019.52 1019.92 1020.08 1020.29 1020.61 1020.79 1020.92 1021.17 1021.44 1021.90 1022.42 1022.74 1022.89 1023.09 1023.20 1023.20
1008.59 1008.36 1008.49 1008.66 1009.05 1009.56 1010.21 1010.81 1011.32 1012.05 1012.42 1013.10 1013.73 1014.30 1014.73 1015.11 1015.35 1015.87 1016.19 1016.99 1017.27 1017.17 1017.14 1017.39 1017.90 1018.32 1018.58 1018.69 1018.80 1019.19 1019.39 1019.48 1019.68 1020.25 1020.37 1020.66 1020.98 1021.37 1021.72 1022.06 1022.25 1022.53 1022.65 1022.72
1008.57 1008.16 1008.25 1008.67 1009.13 1009.59 1010.20 1010.55 1011.21 1012.02 1012.49 1012.99 1013.54 1014.19 1014.69 1015.24 1015.42 1015.99 1016.52 1017.11 1017.49 1017.48 1017.52 1017.44 1017.79 1018.24 1018.54 1018.58 1018.61 1018.93 1019.15 1019.08 1019.07 1019.37 1019.72 1020.14 1020.67 1020.94 1021.25 1021.46 1021.71 1021.90 1022.13 1022.36
1008.77 1008.33 1008.78 1009.34 1009.89 1010.56 1010.94 1011.08 1011.33 1012.09 1012.66 1013.20 1013.64 1014.28 1014.77 1015.43 1015.88 1016.46 1016.86 1017.38 1017.82 1018.10 1018.10 1018.31 1018.61 1018.62 1018.74 1018.74 1018.88 1018.90 1018.82 1018.75 1018.90 1019.05 1019.34 1019.74 1020.17 1020.49 1020.79 1020.92 1021.14 1021.20 1021.40 1021.64
1008.64 1008.60 1008.89 1009.48 1010.23 1010.78 1011.16 1012.18 1012.36 1012.57 1013.00 1013.44 1013.99 1014.58 1015.09 1015.61 1016.09 1016.60 1017.39 1018.13 1018.29 1018.46 1018.65 1018.76 1018.72 1018.83 1018.84 1019.01 1019.13 1019.00 1019.02 1018.90 1018.91 1018.91 1019.05 1019.29 1019.53 1019.76 1019.91 1020.10 1020.18 1020.37 1020.68 1020.90
1009.45 1009.60 1009.60 1010.07 1010.39 1010.82 1012.02 1012.89 1013.16 1013.52 1013.82 1014.39 1014.83 1015.13 1015.38 1016.08 1017.02 1017.39 1017.82 1018.26 1018.66 1018.88 1019.07 1018.96 1018.89 1018.97 1018.92 1019.09 1019.30 1019.24 1019.17 1019.01 1018.89 1018.91 1018.92 1019.04 1019.19 1019.27 1019.31 1019.24 1019.28 1019.35 1019.62 1019.98
1010.58 1010.65 1010.96 1011.04 1011.51 1012.43 1012.95 1013.68 1014.17 1014.52 1014.89 1015.40 1015.80 1016.05 1016.15 1016.61 1017.05 1018.11 1018.29 1018.59 1019.05 1019.29 1019.40 1019.32 1019.19 1019.34 1019.33 1019.21 1019.18 1019.15 1019.08 1018.89 1018.87 1018.96 1019.08 1018.98 1018.93 1018.97 1018.90 1018.81 1018.77 1018.87 1019.07 1019.25
1011.78 1011.99 1012.20 1012.61 1013.00 1013.52 1014.03 1014.40 1014.80 1015.29 1015.67 1016.20 1016.58 1016.83 1017.10 1017.47 1017.94 1018.26 1018.76 1019.14 1019.36 1019.54 1019.58 1019.59 1019.58 1019.46 1019.29 1019.17 1019.12 1019.09 1019.04 1018.96 1018.96 1019.00 1019.03 1019.01 1019.01 1018.80 1018.62 1018.48 1018.42 1018.45 1018.54 1018.59
1012.93 1013.14 1013.36 1013.88 1014.34 1014.70 1015.01 1015.30 1015.56 1016.08 1016.42 1016.64 1017.03 1017.45 1017.96 1018.41 1018.76 1019.09 1019.35 1019.45 1019.60 1019.68 1019.62 1019.50 1019.38 1019.30 1019.07 1018.88 1019.01 1019.14 1019.06 1018.99 1018.89 1018.88 1018.80 1018.74 1018.67 1018.64 1018.62 1018.45 1018.28 1018.19 1018.10 1018.17
Thickness
5754 5765 5769 5771 5771 5760 5755 5752 5745 5759 5751 5764 5768 5762 5765 5770 5768 5762 5752 5744 5742 5738 5745 5746 5741 5734 5739 5734 5730 5728 5726 5725 5722 5718 5712 5707 5703 5696 5690 5689 5687 5687 5688 5688
5745 5756 5764 5765 5773 5774 5773 5769 5766 5762 5753 5779 5766 5764 5764 5765 5763 5753 5749 5747 5750 5746 5746 5738 5734 5731 5733 5728 5726 5730 5726 5723 5723 5716 5713 5705 5699 5693 5687 5684 5682 5682 5681 5682
5724 5738 5749 5735 5767 5769 5768 5781 5775 5761 5777 5765 5762 5764 5762 5759 5756 5753 5748 5746 5747 5744 5737 5732 5729 5728 5725 5724 5726 5725 5724 5723 5717 5712 5706 5701 5695 5689 5683 5679 5677 5674 5673 5673
5709 5727 5704 5743 5767 5776 5765 5763 5770 5772 5767 5767 5764 5762 5758 5755 5750 5747 5748 5742 5740 5734 5728 5722 5718 5718 5715 5718 5718 5719 5716 5720 5714 5707 5701 5694 5687 5682 5679 5675 5671 5667 5665 5663
5698 5696 5719 5750 5757 5757 5756 5755 5761 5755 5758 5759 5761 5758 5750 5749 5746 5740 5737 5733 5729 5722 5715 5711 5710 5707 5706 5707 5709 5714 5710 5712 5709 5703 5697 5688 5680 5674 5670 5666 5661 5659 5658 5658
5690 5698 5694 5727 5748 5757 5759 5726 5758 5757 5754 5756 5756 5733 5738 5737 5737 5732 5724 5722 5718 5711 5706 5701 5697 5693 5699 5697 5697 5700 5698 5696 5700 5697 5691 5684 5675 5667 5661 5659 5654 5651 5648 5647
5680 5689 5704 5728 5738 5744 5721 5716 5747 5750 5747 5748 5745 5740 5737 5731 5724 5719 5711 5706 5700 5696 5694 5688 5685 5686 5689 5687 5686 5687 5686 5684 5685 5684 5680 5673 5668 5661 5654 5649 5646 5643 5641 5637
5670 5677 5684 5721 5735 5730 5717 5728 5740 5742 5738 5732 5728 5725 5721 5713 5709 5706 5700 5694 5688 5683 5683 5678 5677 5682 5680 5677 5676 5675 5671 5669 5668 5668 5665 5659 5655 5652 5648 5642 5637 5633 5631 5625
5666 5672 5694 5705 5715 5720 5724 5726 5728 5733 5731 5725 5717 5707 5702 5696 5692 5692 5685 5679 5675 5672 5670 5670 5672 5672 5669 5666 5664 5662 5663 5659 5655 5653 5651 5645 5642 5640 5640 5633 5627 5622 5620 5613
5664 5675 5683 5693 5706 5715 5722 5722 5720 5726 5724 5720 5710 5701 5693 5688 5686 5684 5679 5672 5668 5666 5665 5663 5661 5659 5656 5654 5655 5652 5647 5644 5642 5642 5636 5632 5629 5627 5626 5623 5615 5611 5606 5599
5653 5665 5670 5684 5694 5699 5706 5713 5714 5709 5709 5704 5701 5695 5692 5685 5677 5672 5672 5667 5664 5660 5654 5649 5647 5646 5645 5644 5644 5639 5633 5629 5626 5625 5621 5617 5613 5609 5611 5607 5605 5598 5593 5589
5642 5661 5664 5672 5683 5692 5696 5696 5696 5698 5694 5692 5690 5683 5676 5673 5666 5663 5663 5655 5650 5646 5642 5638 5636 5637 5637 5633 5632 5629 5623 5619 5617 5616 5611 5608 5602 5599 5594 5592 5591 5585 5584 5580
5651 5659 5661 5669 5672 5679 5686 5690 5689 5687 5685 5680 5673 5672 5669 5663 5663 5661 5655 5646 5643 5642 5638 5635 5630 5627 5624 5618 5616 5615 5612 5605 5603 5599 5596 5591 5586 5584 5579 5575 5574 5573 5571 5569
5645 5648 5650 5657 5663 5669 5670 5671 5674 5672 5672 5673 5668 5662 5660 5658 5653 5651 5646 5642 5639 5636 5631 5628 5624 5619 5613 5608 5603 5604 5601 5594 5589 5587 5585 5580 5578 5572 5569 5564 5561 5558 5558 5557
5631 5638 5643 5649 5656 5662 5659 5658 5656 5653 5656 5656 5655 5655 5653 5651 5647 5643 5641 5638 5634 5625 5617 5613 5609 5605 5603 5597 5595 5592 5589 5580 5577 5572 5568 5565 5563 5561 5560 5557 5553 5550 5548 5547
5621 5626 5631 5638 5644 5648 5648 5648 5646 5642 5644 5645 5647 5644 5644 5645 5642 5636 5632 5627 5620 5612 5606 5601 5598 5594 5592 5590 5585 5580 5576 5573 5568 5563 5560 5555 5553 5550 5546 5546 5545 5544 5542 5540
5614 5616 5619 5623 5630 5635 5638 5640 5641 5638 5635 5635 5635 5636 5634 5629 5626 5622 5621 5614 5609 5605 5601 5595 5590 5585 5582 5579 5576 5571 5567 5562 5561 5554 5551 5546 5546 5543 5541 5538 5536 5534 5533 5533
5615 5624 5622 5625 5624 5626 5627 5628 5628 5628 5627 5627 5627 5627 5626 5622 5618 5613 5608 5606 5602 5597 5594 5592 5588 5581 5577 5572 5567 5565 5561 5555 5554 5552 5550 5546 5541 5538 5531 5528 5526 5524 5523 5523
5612 5616 5621 5622 5622 5623 5624 5621 5621 5620 5620 5619 5618 5615 5617 5615 5612 5609 5601 5594 5592 5591 5590 5589 5585 5579 5574 5569 5565 5560 5559 5556 5552 5549 5547 5544 5540 5532 5525 5521 5520 5520 5518 5518
5604 5610 5615 5616 5616 5617 5616 5617 5616 5611 5612 5609 5605 5604 5603 5601 5600 5598 5594 5587 5584 5585 5586 5583 5577 5571 5567 5565 5564 5558 5557 5555 5553 5545 5543 5538 5534 5528 5523 5520 5519 5517 5515 5514
5596 5604 5607 5607 5606 5608 5607 5608 5608 5606 5604 5603 5600 5595 5594 5591 5591 5588 5584 5577 5574 5573 5573 5574 5570 5564 5560 5557 5555 5552 5549 5548 5547 5543 5539 5533 5526 5523 5519 5517 5516 5514 5511 5508
5586 5595 5595 5595 5595 5592 5593 5597 5600 5598 5597 5594 5593 5589 5587 5582 5580 5574 5572 5568 5561 5559 5558 5557 5553 5553 5550 5548 5545 5545 5544 5542 5539 5537 5534 5529 5525 5521 5517 5516 5512 5511 5508 5504
5585 5590 5592 5592 5589 5586 5588 5584 5587 5589 5589 5587 5586 5582 5579 5574 5570 5567 5559 5552 5550 5549 5548 5547 5546 5544 5542 5540 5537 5537 5533 5533 5533 5533 5531 5528 5525 5522 5519 5516 5513 5509 5504 5498
5577 5579 5582 5584 5588 5586 5578 5576 5578 5578 5577 5575 5573 5571 5569 5563 5554 5552 5549 5545 5542 5543 5543 5542 5540 5537 5536 5532 5528 5527 5527 5527 5527 5526 5525 5523 5520 5517 5515 5513 5512 5508 5502 5496
5570 5573 5575 5578 5578 5573 5571 5568 5567 5566 5565 5562 5559 5556 5556 5552 5549 5541 5541 5538 5534 5534 5533 5532 5532 5529 5527 5526 5525 5524 5523 5523 5521 5519 5516 5515 5512 5509 5507 5505 5502 5499 5493 5488
5563 5564 5565 5564 5564 5563 5561 5560 5557 5555 5553 5550 5546 5545 5543 5541 5538 5536 5532 5530 5528 5527 5526 5526 5524 5523 5523 5521 5520 5518 5517 5515 5513 5509 5506 5503 5500 5498 5497 5496 5494 5490 5486 5481
5554 5555 5556 5554 5552 5551 5551 5550 5550 5545 5543 5542 5540 5536 5532 5528 5526 5524 5523 5523 5522 5522 5521 5521 5520 5519 5518 5517 5513 5509 5508 5506 5504 5501 5498 5495 5492 5488 5484 5482 5480 5477 5474 5471